Weather History for Gulf Shores, AL

Change the Weather History Date:

Sunday, August 10, 2014

  Actual Average (KPNS) Record (KPNS)
Temperature  
Mean Temperature 80 °F 82 °F  
Max Temperature 89 °F 90 °F 98 °F (1956)
Min Temperature 72 °F 74 °F 64 °F (1976)
Cooling Degree Days 16 17  
Month to date cooling degree days 170  
Year to date cooling degree days 1616  
Since 1 June cooling degree days 1168  
Growing Degree Days 30 (Base 50)    
Moisture  
Dew Point 74 °F    
Average Humidity 83    
Maximum Humidity 100    
Minimum Humidity 60    
Precipitation  
Precipitation 0.48 in 0.23 in 1.91 in (1918)
Month to date precipitation 2.41  
Year to date precipitation 40.42  
Sea Level Pressure  
Sea Level Pressure 30.01 in    
Wind  
Wind Speed 3 mph (WNW)    
Max Wind Speed 12 mph    
Max Gust Speed -    
Visibility 9 miles    
Events      
T = Trace of Precipitation, MM = Missing Value Source: NWS Daily Summary

Daily Weather History Graph

Daily Weather History Graph

Search for Another Location

Airport:

Trip Planner

Search our weather history database for the weather conditions in past years. The results will help you decide how hot, cold, wet, or windy it might be!

Date:

Astronomy

Aug. 10, 2014 Rise Set
Actual Time 6:14 AM CDT 7:36 PM CDT
Civil Twilight 5:49 AM CDT 8:02 PM CDT
Nautical Twilight 5:18 AM CDT 8:32 PM CDT
Astronomical Twilight 4:47 AM CDT 9:04 PM CDT
Moon 7:29 PM CDT (8/10) 6:03 AM CDT (8/10)
Length of Visible Light 14h 13m
Length of Day
13h 22m
Full, 100% of the Moon is Illuminated
Aug 10
Full
Aug 10
Full
Aug 17
Last Quarter
Aug 25
New
Sep 2
First Quarter

Hourly Weather History & Observations

Time (CDT) Temp. Heat Index Dew Point Humidity Pressure Visibility Wind Dir Wind Speed Gust Speed Precip Events Conditions
12:15 AM 73.9 °F - 73.4 °F 98% 29.98 in 10.0 mi East 3.5 mph - N/A   Clear
12:35 AM 74.3 °F - 73.0 °F 96% 29.98 in 10.0 mi Calm Calm - N/A   Clear
12:55 AM 74.3 °F - 72.9 °F 95% 29.98 in 10.0 mi Calm Calm - N/A   Clear
1:15 AM 73.9 °F - 73.0 °F 97% 29.99 in 10.0 mi Calm Calm - N/A   Clear
1:35 AM 73.8 °F - 72.9 °F 97% 29.99 in 10.0 mi Calm Calm - N/A   Clear
1:55 AM 73.8 °F - 73.0 °F 98% 29.99 in 10.0 mi Calm Calm - N/A   Clear
2:15 AM 73.6 °F - 73.0 °F 98% 29.99 in 7.0 mi Calm Calm - N/A   Clear
2:35 AM 73.4 °F - 72.7 °F 98% 29.98 in 7.0 mi Calm Calm - N/A   Clear
2:55 AM 73.0 °F - 72.5 °F 98% 29.98 in 5.0 mi Calm Calm - N/A   Clear
3:15 AM 73.0 °F - 72.5 °F 98% 29.97 in 7.0 mi Calm Calm - N/A   Clear
3:35 AM 73.0 °F - 72.7 °F 99% 29.97 in 7.0 mi Calm Calm - N/A   Scattered Clouds
3:55 AM 72.7 °F - 72.5 °F 99% 29.97 in 5.0 mi Calm Calm - N/A   Scattered Clouds
4:15 AM 72.5 °F - 72.5 °F 100% 29.97 in 4.0 mi Calm Calm - N/A   Scattered Clouds
4:35 AM 72.5 °F - 72.3 °F 99% 29.97 in 7.0 mi Calm Calm - N/A   Clear
4:55 AM 72.5 °F - 72.1 °F 99% 29.97 in 5.0 mi Calm Calm - N/A   Clear
5:15 AM 72.3 °F - 72.1 °F 99% 29.98 in 7.0 mi NNW 3.5 mph - N/A   Scattered Clouds
5:35 AM 73.4 °F - 72.7 °F 98% 29.99 in 10.0 mi Calm Calm - N/A   Clear
5:55 AM 72.7 °F - 72.1 °F 98% 30.00 in 7.0 mi Calm Calm - N/A   Clear
6:15 AM 72.1 °F - 71.8 °F 99% 30.01 in 4.0 mi Calm Calm - N/A   Clear
6:35 AM 72.5 °F - 72.1 °F 99% 30.02 in 5.0 mi Calm Calm - N/A   Clear
6:55 AM 73.0 °F - 72.5 °F 98% 30.02 in 7.0 mi Calm Calm - N/A   Clear
7:15 AM 74.3 °F - 73.4 °F 97% 30.03 in 10.0 mi Calm Calm - N/A   Clear
7:35 AM 75.7 °F - 74.3 °F 95% 30.04 in 10.0 mi Calm Calm - N/A   Clear
7:55 AM 76.1 °F - 74.1 °F 94% 30.05 in 10.0 mi North 3.5 mph - N/A   Clear
8:15 AM 77.7 °F - 74.8 °F 91% 30.05 in 10.0 mi Calm Calm - N/A   Clear
8:35 AM 79.0 °F - 75.6 °F 89% 30.06 in 10.0 mi Calm Calm - N/A   Scattered Clouds
8:55 AM 80.2 °F 86.0 °F 76.3 °F 88% 30.06 in 10.0 mi NNW 5.8 mph - N/A   Mostly Cloudy
9:15 AM 80.4 °F 86.5 °F 76.5 °F 88% 30.06 in 10.0 mi North 4.6 mph - N/A   Overcast
9:35 AM 81.3 °F 88.0 °F 75.9 °F 84% 30.06 in 10.0 mi Calm Calm - N/A   Mostly Cloudy
9:55 AM 82.4 °F 89.5 °F 75.2 °F 79% 30.07 in 10.0 mi NW 4.6 mph - N/A   Mostly Cloudy
10:15 AM 82.9 °F 90.2 °F 75.2 °F 77% 30.07 in 10.0 mi Calm Calm - N/A   Scattered Clouds
10:35 AM 84.0 °F 91.5 °F 74.5 °F 73% 30.06 in 10.0 mi WNW 8.1 mph - N/A   Scattered Clouds
10:55 AM 84.9 °F 92.5 °F 74.3 °F 70% 30.06 in 10.0 mi NW 9.2 mph - N/A   Scattered Clouds
11:15 AM 86.0 °F 93.0 °F 73.2 °F 65% 30.05 in 10.0 mi WNW 6.9 mph - N/A   Scattered Clouds
11:35 AM 86.4 °F 95.1 °F 74.5 °F 68% 30.06 in 10.0 mi West 8.1 mph - N/A   Scattered Clouds
11:55 AM 86.5 °F 94.6 °F 74.1 °F 66% 30.05 in 10.0 mi NW 6.9 mph - N/A   Mostly Cloudy
12:15 PM 87.3 °F 96.8 °F 75.0 °F 67% 30.05 in 10.0 mi NNW 4.6 mph - N/A   Clear
12:35 PM 87.1 °F 95.4 °F 74.1 °F 65% 30.04 in 10.0 mi NNW 8.1 mph - N/A   Scattered Clouds
12:55 PM 88.0 °F 97.0 °F 74.5 °F 64% 30.03 in 10.0 mi WNW 5.8 mph - N/A   Scattered Clouds
1:15 PM 87.6 °F 96.7 °F 74.5 °F 65% 30.02 in 10.0 mi NW 6.9 mph - N/A   Scattered Clouds
1:35 PM 88.5 °F 96.3 °F 72.9 °F 60% 30.02 in 10.0 mi North 3.5 mph - N/A   Scattered Clouds
1:55 PM 88.3 °F 98.4 °F 75.4 °F 65% 30.02 in 10.0 mi WSW 9.2 mph - N/A   Scattered Clouds
2:15 PM 89.1 °F 100.2 °F 76.1 °F 65% 30.02 in 10.0 mi West 8.1 mph - N/A   Mostly Cloudy
2:35 PM 88.5 °F 97.8 °F 74.7 °F 63% 30.02 in 10.0 mi West 9.2 mph - N/A   Scattered Clouds
2:55 PM 87.1 °F 95.4 °F 73.9 °F 65% 30.01 in 10.0 mi West 9.2 mph - N/A   Scattered Clouds
3:15 PM 85.5 °F 93.4 °F 74.1 °F 69% 30.01 in 10.0 mi West 11.5 mph - N/A   Mostly Cloudy
3:35 PM 86.2 °F 95.1 °F 74.8 °F 69% 30.00 in 10.0 mi West 11.5 mph - N/A   Scattered Clouds
3:55 PM 87.6 °F 97.1 °F 75.2 °F 66% 30.00 in 10.0 mi West 10.4 mph - N/A   Clear
4:15 PM 86.9 °F 95.0 °F 73.8 °F 65% 29.99 in 10.0 mi West 10.4 mph - N/A   Clear
4:35 PM 87.1 °F 94.5 °F 73.2 °F 63% 29.99 in 10.0 mi West 11.5 mph - N/A   Clear
4:55 PM 87.4 °F 95.8 °F 73.9 °F 64% 29.98 in 10.0 mi West 10.4 mph - N/A   Clear
5:15 PM 87.1 °F 96.8 °F 75.4 °F 68% 29.97 in 10.0 mi West 9.2 mph - N/A   Clear
5:35 PM 87.1 °F 95.9 °F 74.7 °F 66% 29.97 in 10.0 mi West 8.1 mph - N/A   Clear
5:55 PM 86.2 °F 95.5 °F 75.2 °F 70% 29.97 in 10.0 mi West 6.9 mph - N/A   Clear
6:35 PM 85.1 °F 93.7 °F 75.2 °F 72% 29.96 in 10.0 mi West 8.1 mph - N/A   Clear
6:55 PM 84.2 °F 92.6 °F 75.6 °F 75% 29.97 in 10.0 mi West 5.8 mph - N/A   Clear
7:15 PM 83.5 °F 91.2 °F 75.2 °F 76% 29.97 in 10.0 mi WSW 6.9 mph - N/A   Clear
7:35 PM 82.4 °F 89.2 °F 74.8 °F 78% 29.97 in 10.0 mi WSW 6.9 mph - N/A   Clear
7:55 PM 80.2 °F 85.5 °F 75.2 °F 85% 29.98 in 10.0 mi West 4.6 mph - N/A   Clear
8:15 PM 79.3 °F - 74.8 °F 86% 29.97 in 10.0 mi West 4.6 mph - N/A   Clear
8:35 PM 78.8 °F - 74.7 °F 87% 29.98 in 10.0 mi West 3.5 mph - N/A   Clear
8:55 PM 79.3 °F - 75.2 °F 87% 29.99 in 10.0 mi West 3.5 mph - N/A   Clear
9:15 PM 79.7 °F - 74.7 °F 84% 29.99 in 10.0 mi West 3.5 mph - N/A   Clear
9:35 PM 79.2 °F - 74.8 °F 87% 30.01 in 10.0 mi Calm Calm - N/A   Clear
9:55 PM 79.2 °F - 75.2 °F 88% 30.02 in 10.0 mi WNW 3.5 mph - N/A   Clear
10:15 PM 80.2 °F 85.5 °F 75.2 °F 85% 30.02 in 10.0 mi WNW 3.5 mph - N/A   Clear
10:35 PM 79.5 °F - 75.2 °F 87% 30.02 in 10.0 mi WNW 3.5 mph - N/A   Clear
10:55 PM 79.0 °F - 75.2 °F 88% 30.02 in 10.0 mi WNW 4.6 mph - N/A   Clear
11:15 PM 79.7 °F - 75.4 °F 87% 30.02 in 10.0 mi WNW 3.5 mph - N/A   Scattered Clouds
11:35 PM 80.6 °F 86.2 °F 75.2 °F 84% 30.02 in 10.0 mi NNW 9.2 mph - N/A   Mostly Cloudy
11:55 PM 79.5 °F - 74.3 °F 84% 30.01 in 10.0 mi Calm Calm - N/A   Scattered Clouds